#timestamp,LO_Frequency,Hit,StdDev 
1570881615.4,286047008.3,N
1570881635.2,286047011.7,N
1570881655.1,286047009.4,N
1570881656.0,286047009.4,N
1570881675.8,286047008.5,N
1570881695.7,286047008.8,N
1570881715.5,286047006.3,N
1570881735.3,286047007.1,N
1570881755.2,286047008.5,N
1570881775.0,286047006.5,N
1570881775.9,286047006.5,N
1570881795.8,286047004.5,N
1570881815.6,286047004.5,N
1570881835.4,286047007.4,N
1570881855.3,286047010.5,Y
1570881875.1,286047005.6,P
1570881895.9,286047002.3,N
1570881915.7,286047001.1,N
1570881935.5,286046998.2,N
1570881955.4,286046997.0,N
1570881975.2,286046997.2,N
1570881995.0,286046996.4,N
1570881995.9,286046996.4,N
1570882015.8,286046995.5,N
1570882035.6,286046998.0,N
1570882055.5,286046997.9,N
1570882075.3,286046991.7,N
1570882095.1,286046992.5,N
1570882115.9,286046992.1,N
1570882135.7,286046994.1,N
1570882155.5,286046996.5,N
1570882175.4,286047000.6,N
1570882195.2,286046999.4,N
1570882215.1,286047000.8,N
1570882216.0,286047000.8,N
1570882235.8,286046998.8,N
1570882255.6,286046999.5,N
1570882275.5,286046997.7,N
1570882295.3,286046996.7,N
1570882315.1,286046997.3,N
1570882335.9,286046998.6,N
1570882355.7,286046999.9,N
1570882375.6,286046999.9,N
1570882395.4,286046999.0,N
1570882415.2,286046995.4,N
1570882435.1,286046997.9,N
1570882436.0,286046997.9,N
1570882455.8,286046996.0,N
1570882475.7,286046992.1,Y
1570882495.5,286046993.3,P
1570882515.3,286046993.4,P
1570882535.2,286046993.5,P
1570882555.0,286046993.7,Y
1570882555.9,286046993.7,P
1570882575.8,286047000.0,N
1570882595.6,286047001.6,N
1570882615.4,286047005.6,N
1570882635.3,286047006.8,N
1570882655.1,286047005.8,N
1570882675.8,286047005.6,N
1570882695.7,286047003.4,N
1570882715.5,286047003.6,N
1570882735.4,286047005.5,N
1570882755.2,286047005.5,N
1570882775.0,286047001.5,N
1570882775.9,286047001.5,N
1570882795.8,286047002.8,N
1570882815.6,286047002.9,N
1570882835.4,286047003.8,N
1570882855.3,286047005.5,N
1570882875.1,286047005.8,N
1570882895.9,286047005.4,N
1570882915.7,286047005.3,N
1570882935.5,286047003.3,N
1570882955.4,286047007.4,N
1570882975.2,286047003.0,N
1570882995.0,286047007.2,N
1570882996.0,286047007.2,N
1570883015.8,286047003.7,N
1570883035.6,286047002.2,N
1570883055.5,286047000.1,N
1570883075.3,286047000.6,N
1570883095.1,286046998.3,N
1570883115.9,286046998.7,N
1570883135.7,286046999.6,N
1570883155.6,286046998.2,N
1570883175.4,286046997.0,N
1570883195.2,286046996.6,N
1570883215.1,286046996.9,N
1570883216.0,286046996.9,N
1570883235.8,286046994.9,N
1570883255.6,286046996.2,N
1570883275.5,286046995.7,N
1570883295.3,286046999.2,N
1570883315.2,286046997.3,N
1570883335.9,286046997.9,N
1570883355.7,286046997.1,N
1570883375.6,286046999.6,N
1570883395.4,286046998.7,N
1570883415.2,286046997.6,N
1570883435.1,286046995.7,N
1570883436.0,286046995.7,N
1570883455.8,286046994.9,N
1570883475.7,286046997.6,N
1570883495.5,286046997.5,N
1570883515.3,286046996.2,N
1570883535.2,286046996.2,N
1570883555.0,286046993.9,N
1570883555.9,286046993.9,N
1570883575.8,286046994.2,Y
1570883595.6,286046999.4,P
1570883615.4,286047000.5,N
1570883635.3,286047002.9,N
1570883655.1,286047006.3,Y
1570883675.9,286047008.8,P
1570883695.7,286047007.2,N
1570883715.5,286047005.8,N
1570883735.4,286047004.2,N
1570883755.2,286047002.5,N
1570883775.0,286047002.1,N
1570883775.9,286047002.1,N
1570883795.8,286047001.6,N
1570883815.6,286047001.7,N
1570883835.5,286047002.3,N
1570883855.3,286047000.8,N
1570883875.1,286046999.1,N
1570883895.9,286046999.7,N
1570883915.7,286047003.7,N
1570883935.5,286047003.8,N
1570883955.4,286047004.8,N
1570883975.2,286047004.8,N
1570883995.1,286047006.8,N
1570883996.0,286047006.8,N
1570884015.8,286047005.5,N
1570884035.6,286047005.3,N
1570884055.5,286047008.5,Y
1570884075.3,286047004.4,P
1570884095.2,286047002.1,P
1570884115.9,286047001.4,N
1570884135.7,286047002.7,N
1570884155.6,286047001.2,N
1570884175.4,286046998.2,N
1570884195.2,286046999.7,N
1570884215.1,286047000.6,N
1570884216.0,286047000.6,N
1570884235.8,286046998.1,N
1570884255.7,286046998.7,N
1570884275.5,286046999.1,N
1570884295.3,286046995.7,N
1570884315.2,286046994.1,N
1570884335.0,286046997.8,N
1570884335.9,286046997.8,N
1570884355.7,286046997.8,N
1570884375.6,286046999.2,N
1570884395.4,286047000.9,N
1570884415.3,286047001.5,N
1570884435.1,286046998.6,N
1570884436.0,286046998.6,N
1570884455.8,286046998.0,N
1570884475.7,286046994.7,N
1570884495.5,286046994.4,N
1570884515.3,286046999.1,N
1570884535.2,286046998.3,N
1570884555.0,286046997.4,N
1570884555.9,286046997.4,N
1570884605.8,286046992.8,E
1570884615.7,286046995.2,N
1570884635.6,286047000.9,P
1570884655.4,286047000.5,N
1570884675.2,286047005.5,N
1570884695.1,286047005.9,N
1570884696.0,286047005.9,N
1570884715.8,286047006.0,N
1570884735.6,286047007.4,N
1570884755.5,286047008.3,N
1570884775.3,286047013.5,Y
1570884795.2,286047012.1,P
1570884815.9,286047010.3,N
1570884835.7,286047011.9,P
1570884855.6,286047008.0,N
1570884875.4,286047006.5,N
1570884895.3,286047004.9,N
1570884915.1,286047006.5,N
1570884916.0,286047006.5,N
1570884935.8,286047008.6,Y
1570884955.7,286047002.1,P
1570884975.5,286047001.1,N
1570884995.3,286047000.8,N
1570885015.2,286046996.8,N
1570885035.0,286047002.4,N
1570885035.9,286047002.4,N
1570885055.8,286046998.3,N
1570885075.6,286046997.3,N
1570885095.4,286047002.7,N
1570885115.3,286046998.4,N
1570885135.1,286046997.1,N
1570885155.8,286047001.2,N
1570885175.7,286046999.5,N
1570885195.5,286046993.4,N
